| time (UTC) | temp C | wind direction | speed KPH | gust KPH | rain 1hr cm | rain 24hr cm | rain mn cm | humidity % | barometer mb |
| 20260902024825 | 16 | 210 | 0.0 | 16.1 | 0.00 | 0.10 | 0.10 | 87 | 1007.8 |
| 20260902024326 | 16 | 198 | 6.4 | 16.1 | 0.00 | 0.10 | 0.10 | 87 | 1007.8 |
| 20260902023825 | 16 | 183 | 8.0 | 16.1 | 0.00 | 0.10 | 0.10 | 87 | 1007.8 |
| 20260902023325 | 16 | 214 | 11.3 | 12.9 | 0.00 | 0.10 | 0.10 | 86 | 1007.8 |
| 20260902022825 | 16 | 205 | 3.2 | 9.7 | 0.00 | 0.10 | 0.10 | 87 | 1007.8 |
| 20260902022325 | 16 | 186 | 6.4 | 19.3 | 0.00 | 0.10 | 0.10 | 86 | 1007.8 |
| 20260902021825 | 16 | 228 | 8.0 | 19.3 | 0.00 | 0.10 | 0.10 | 86 | 1007.8 |
| 20260902021326 | 16 | 177 | 8.0 | 19.3 | 0.00 | 0.10 | 0.10 | 86 | 1007.8 |
| 20260902020825 | 16 | 186 | 11.3 | 22.5 | 0.00 | 0.10 | 0.10 | 86 | 1007.9 |
| 20260902020325 | 16 | 184 | 11.3 | 22.5 | 0.00 | 0.10 | 0.10 | 86 | 1008.0 |
| 20260902015826 | 16 | 173 | 11.3 | 22.5 | 0.00 | 0.10 | 0.10 | 86 | 1007.9 |
| 20260902015325 | 16 | 200 | 11.3 | 19.3 | 0.00 | 0.10 | 0.10 | 86 | 1007.8 |
| 20260902014825 | 16 | 162 | 11.3 | 19.3 | 0.00 | 0.10 | 0.10 | 86 | 1007.7 |
| 20260902014326 | 16 | 156 | 12.9 | 20.9 | 0.00 | 0.10 | 0.10 | 86 | 1007.7 |
| 20260902013825 | 16 | 204 | 9.7 | 20.9 | 0.00 | 0.10 | 0.10 | 87 | 1007.7 |
| 20260902013325 | 16 | 190 | 6.4 | 20.9 | 0.00 | 0.10 | 0.10 | 86 | 1007.8 |
| 20260902012825 | 16 | 154 | 12.9 | 17.7 | 0.00 | 0.10 | 0.10 | 87 | 1007.8 |
| 20260902012325 | 16 | 193 | 9.7 | 16.1 | 0.00 | 0.10 | 0.10 | 87 | 1007.7 |
| 20260902011825 | 16 | 246 | 9.7 | 25.7 | 0.00 | 0.10 | 0.10 | 87 | 1007.7 |
| 20260902011326 | 16 | 201 | 6.4 | 25.7 | 0.00 | 0.10 | 0.10 | 87 | 1007.7 |
| 20260902010825 | 16 | 196 | 12.9 | 25.7 | 0.00 | 0.10 | 0.10 | 86 | 1007.8 |
| 20260902010325 | 16 | 196 | 16.1 | 24.1 | 0.00 | 0.10 | 0.10 | 86 | 1007.8 |
| 20260902005825 | 16 | 201 | 9.7 | 24.1 | 0.00 | 0.10 | 0.10 | 86 | 1007.8 |
| 20260902005325 | 16 | 205 | 6.4 | 24.1 | 0.00 | 0.10 | 0.10 | 86 | 1007.8 |
| 20260902004825 | 16 | 184 | 14.5 | 22.5 | 0.00 | 0.10 | 0.10 | 86 | 1007.8 |
| 20260902004326 | 16 | 187 | 12.9 | 25.7 | 0.00 | 0.10 | 0.10 | 86 | 1007.9 |
| 20260902003825 | 16 | 187 | 11.3 | 25.7 | 0.00 | 0.10 | 0.10 | 86 | 1007.9 |
| 20260902003325 | 16 | 184 | 14.5 | 25.7 | 0.00 | 0.10 | 0.10 | 86 | 1008.0 |
| 20260902002825 | 16 | 194 | 12.9 | 24.1 | 0.00 | 0.10 | 0.10 | 85 | 1008.1 |
| 20260902002325 | 16 | 200 | 12.9 | 24.1 | 0.00 | 0.10 | 0.10 | 86 | 1008.1 |
| 20260902001825 | 16 | 184 | 9.7 | 29.0 | 0.00 | 0.10 | 0.10 | 86 | 1008.2 |
| 20260902001328 | 16 | 211 | 9.7 | 29.0 | 0.00 | 0.10 | 0.10 | 86 | 1008.1 |
| 20260902000825 | 16 | 182 | 8.0 | 29.0 | 0.00 | 0.10 | 0.10 | 85 | 1008.1 |
| 20260902000325 | 16 | 210 | 9.7 | 22.5 | 0.00 | 0.10 | 0.10 | 85 | 1008.2 |
| 20260901235826 | 16 | 177 | 16.1 | 30.6 | 0.00 | 0.10 | 0.10 | 85 | 1008.1 |
| 20260901235325 | 16 | 191 | 11.3 | 30.6 | 0.00 | 0.10 | 0.10 | 85 | 1008.2 |
| 20260901234825 | 16 | 186 | 19.3 | 30.6 | 0.00 | 0.10 | 0.10 | 85 | 1008.3 |
| 20260901234326 | 17 | 189 | 16.1 | 29.0 | 0.00 | 0.10 | 0.10 | 85 | 1008.2 |
| 20260901233825 | 17 | 196 | 12.9 | 24.1 | 0.00 | 0.10 | 0.10 | 85 | 1008.2 |
| 20260901233325 | 17 | 207 | 12.9 | 33.8 | 0.00 | 0.10 | 0.10 | 85 | 1008.2 |
| 20260901232825 | 16 | 193 | 14.5 | 33.8 | 0.00 | 0.10 | 0.10 | 85 | 1008.2 |
| 20260901232325 | 16 | 182 | 19.3 | 33.8 | 0.00 | 0.10 | 0.10 | 85 | 1008.2 |
| 20260901231825 | 17 | 198 | 17.7 | 32.2 | 0.00 | 0.10 | 0.10 | 85 | 1008.3 |
| 20260901231326 | 16 | 175 | 12.9 | 32.2 | 0.00 | 0.10 | 0.10 | 85 | 1008.2 |
| 20260901225825 | 17 | 172 | 12.9 | 25.7 | 0.00 | 0.10 | 0.10 | 83 | 1008.3 |
| 20260901225325 | 17 | 190 | 9.7 | 25.7 | 0.00 | 0.10 | 0.10 | 83 | 1008.3 |
| 20260901224825 | 17 | 158 | 11.3 | 25.7 | 0.00 | 0.10 | 0.10 | 84 | 1008.2 |
| 20260901224326 | 17 | 252 | 11.3 | 24.1 | 0.00 | 0.10 | 0.10 | 84 | 1008.2 |
| 20260901223825 | 17 | 201 | 11.3 | 22.5 | 0.00 | 0.10 | 0.10 | 84 | 1008.3 |
| 20260901223325 | 17 | 180 | 12.9 | 20.9 | 0.00 | 0.10 | 0.10 | 84 | 1008.2 |
| 20260901222825 | 17 | 190 | 12.9 | 17.7 | 0.00 | 0.10 | 0.10 | 84 | 1008.3 |
| 20260901222325 | 17 | 226 | 8.0 | 17.7 | 0.00 | 0.10 | 0.10 | 84 | 1008.4 |
| 20260901221825 | 17 | 221 | 8.0 | 16.1 | 0.00 | 0.10 | 0.10 | 84 | 1008.4 |
| 20260901221326 | 17 | 246 | 6.4 | 16.1 | 0.00 | 0.10 | 0.10 | 84 | 1008.4 |
| 20260901220826 | 17 | 229 | 8.0 | 12.9 | 0.00 | 0.10 | 0.10 | 84 | 1008.4 |
| 20260901220325 | 18 | 257 | 6.4 | 12.9 | 0.00 | 0.10 | 0.10 | 84 | 1008.4 |
| 20260901215325 | 17 | 190 | 8.0 | 19.3 | 0.00 | 0.10 | 0.10 | 85 | 1008.4 |
| 20260901214825 | 17 | 200 | 9.7 | 19.3 | 0.00 | 0.10 | 0.10 | 85 | 1008.3 |
| 20260901214326 | 17 | 154 | 12.9 | 19.3 | 0.00 | 0.10 | 0.10 | 85 | 1008.3 |
| 20260901213825 | 17 | 180 | 6.4 | 24.1 | 0.00 | 0.10 | 0.10 | 85 | 1008.3 |
| 20260901213325 | 17 | 189 | 11.3 | 24.1 | 0.00 | 0.10 | 0.10 | 84 | 1008.2 |
| 20260901212825 | 17 | 247 | 12.9 | 24.1 | 0.00 | 0.10 | 0.10 | 84 | 1008.2 |
| 20260901212325 | 17 | 232 | 14.5 | 24.1 | 0.00 | 0.10 | 0.10 | 84 | 1008.2 |
| 20260901211825 | 17 | 239 | 11.3 | 25.7 | 0.00 | 0.10 | 0.10 | 85 | 1008.2 |
| 20260901211326 | 17 | 190 | 8.0 | 25.7 | 0.00 | 0.10 | 0.10 | 85 | 1008.2 |
| 20260901210825 | 17 | 193 | 8.0 | 25.7 | 0.00 | 0.10 | 0.10 | 85 | 1008.2 |
| 20260901210325 | 17 | 207 | 14.5 | 19.3 | 0.00 | 0.10 | 0.10 | 85 | 1008.2 |
| 20260901205825 | 17 | 168 | 12.9 | 20.9 | 0.00 | 0.10 | 0.10 | 85 | 1008.2 |
| 20260901205325 | 16 | 225 | 11.3 | 20.9 | 0.00 | 0.10 | 0.10 | 86 | 1008.2 |
| 20260901204825 | 16 | 184 | 4.8 | 20.9 | 0.00 | 0.10 | 0.10 | 86 | 1008.1 |
| 20260901204326 | 16 | 239 | 9.7 | 20.9 | 0.00 | 0.10 | 0.10 | 85 | 1008.1 |
| 20260901203826 | 16 | 247 | 11.3 | 20.9 | 0.00 | 0.10 | 0.10 | 86 | 1008.2 |
| 20260901203326 | 16 | 187 | 11.3 | 19.3 | 0.00 | 0.10 | 0.10 | 85 | 1008.1 |
| 20260901202825 | 16 | 214 | 4.8 | 19.3 | 0.00 | 0.10 | 0.10 | 86 | 1008.2 |
| 20260901202325 | 16 | 170 | 9.7 | 19.3 | 0.00 | 0.10 | 0.10 | 86 | 1008.3 |
| 20260901201825 | 16 | 187 | 6.4 | 17.7 | 0.00 | 0.10 | 0.10 | 86 | 1008.3 |
| 20260901201326 | 16 | 197 | 8.0 | 17.7 | 0.00 | 0.10 | 0.10 | 85 | 1008.4 |
| 20260901200825 | 16 | 274 | 6.4 | 14.5 | 0.00 | 0.10 | 0.10 | 86 | 1008.4 |
| 20260901200325 | 16 | 211 | 6.4 | 14.5 | 0.00 | 0.10 | 0.10 | 86 | 1008.3 |
| 20260901195825 | 16 | 194 | 4.8 | 20.9 | 0.00 | 0.10 | 0.10 | 85 | 1008.3 |
| 20260901195325 | 17 | 211 | 8.0 | 20.9 | 0.00 | 0.10 | 0.10 | 85 | 1008.3 |
| 20260901194826 | 17 | 196 | 6.4 | 20.9 | 0.00 | 0.10 | 0.10 | 85 | 1008.3 |
| 20260901194326 | 17 | 183 | 6.4 | 16.1 | 0.00 | 0.10 | 0.10 | 85 | 1008.3 |
| 20260901193825 | 17 | 203 | 6.4 | 19.3 | 0.00 | 0.10 | 0.10 | 86 | 1008.4 |
| 20260901193325 | 17 | 232 | 3.2 | 19.3 | 0.00 | 0.10 | 0.10 | 86 | 1008.3 |
| 20260901192825 | 17 | 163 | 4.8 | 19.3 | 0.00 | 0.10 | 0.10 | 86 | 1008.3 |
| 20260901192325 | 17 | 158 | 9.7 | 17.7 | 0.00 | 0.10 | 0.10 | 86 | 1008.3 |
| 20260901191825 | 16 | 208 | 6.4 | 17.7 | 0.00 | 0.10 | 0.10 | 87 | 1008.3 |
| 20260901191326 | 16 | 239 | 9.7 | 17.7 | 0.00 | 0.10 | 0.10 | 86 | 1008.3 |
| 20260901190827 | 16 | 204 | 4.8 | 27.4 | 0.00 | 0.10 | 0.10 | 87 | 1008.4 |
| 20260901190325 | 16 | 193 | 11.3 | 27.4 | 0.00 | 0.10 | 0.10 | 87 | 1008.3 |
| 20260901185825 | 16 | 204 | 11.3 | 27.4 | 0.00 | 0.10 | 0.10 | 86 | 1008.3 |
| 20260901185325 | 16 | 212 | 12.9 | 25.7 | 0.00 | 0.10 | 0.10 | 86 | 1008.4 |
| 20260901184825 | 16 | 205 | 12.9 | 22.5 | 0.00 | 0.10 | 0.10 | 87 | 1008.3 |
| 20260901184326 | 16 | 144 | 11.3 | 22.5 | 0.00 | 0.10 | 0.10 | 87 | 1008.3 |
| 20260901183825 | 16 | 180 | 8.0 | 22.5 | 0.00 | 0.10 | 0.10 | 87 | 1008.4 |
| 20260901183325 | 16 | 194 | 8.0 | 20.9 | 0.00 | 0.10 | 0.10 | 88 | 1008.3 |
| 20260901182825 | 16 | 169 | 9.7 | 20.9 | 0.00 | 0.10 | 0.10 | 87 | 1008.3 |
| 20260901182325 | 16 | 203 | 9.7 | 20.9 | 0.00 | 0.10 | 0.10 | 88 | 1008.2 |
| 20260901181825 | 16 | 194 | 12.9 | 17.7 | 0.00 | 0.10 | 0.10 | 88 | 1008.2 |
| 20260901181328 | 16 | 138 | 8.0 | 17.7 | 0.00 | 0.10 | 0.10 | 88 | 1008.2 |
| 20260901180825 | 16 | 180 | 8.0 | 17.7 | 0.00 | 0.10 | 0.10 | 88 | 1008.2 |
| 20260901180325 | 16 | 257 | 6.4 | 17.7 | 0.00 | 0.10 | 0.10 | 88 | 1008.2 |
| 20260901175826 | 16 | 190 | 8.0 | 17.7 | 0.00 | 0.10 | 0.10 | 88 | 1008.2 |
| 20260901175325 | 16 | 225 | 6.4 | 17.7 | 0.00 | 0.10 | 0.10 | 88 | 1008.3 |
| 20260901174825 | 16 | 253 | 4.8 | 16.1 | 0.00 | 0.10 | 0.10 | 88 | 1008.2 |
| 20260901174326 | 16 | 236 | 8.0 | 11.3 | 0.00 | 0.10 | 0.10 | 88 | 1008.2 |
| 20260901173825 | 17 | 249 | 4.8 | 14.5 | 0.00 | 0.10 | 0.10 | 88 | 1008.1 |
| 20260901173418 | 17 | 235 | 3.2 | 14.5 | 0.00 | 0.10 | 0.10 | 88 | 1008.0 |
| 20260901173325 | 17 | 235 | 3.2 | 14.5 | 0.00 | 0.10 | 0.10 | 88 | 1008.0 |
| 20260901172826 | 17 | 246 | 3.2 | 14.5 | 0.00 | 0.10 | 0.10 | 88 | 1008.0 |
| 20260901172325 | 17 | 190 | 3.2 | 16.1 | 0.00 | 0.10 | 0.10 | 89 | 1007.9 |
| 20260901171825 | 17 | 207 | 4.8 | 16.1 | 0.00 | 0.10 | 0.10 | 90 | 1007.8 |
| 20260901171326 | 17 | 203 | 3.2 | 16.1 | 0.00 | 0.10 | 0.10 | 90 | 1007.8 |
| 20260901170825 | 17 | 214 | 9.7 | 11.3 | 0.00 | 0.10 | 0.10 | 90 | 1007.8 |
| 20260901170325 | 17 | 191 | 6.4 | 9.7 | 0.00 | 0.10 | 0.10 | 90 | 1007.8 |
| 20260901165826 | 16 | 196 | 1.6 | 8.0 | 0.00 | 0.10 | 0.10 | 90 | 1007.8 |
| 20260901165325 | 16 | 201 | 1.6 | 8.0 | 0.00 | 0.10 | 0.10 | 90 | 1007.8 |
| 20260901164825 | 16 | 222 | 4.8 | 8.0 | 0.00 | 0.10 | 0.10 | 90 | 1007.8 |
| 20260901164326 | 16 | 194 | 0.0 | 6.4 | 0.00 | 0.10 | 0.10 | 90 | 1007.9 |
| 20260901163825 | 16 | 204 | 1.6 | 6.4 | 0.00 | 0.10 | 0.10 | 89 | 1007.9 |
| 20260901163325 | 16 | 162 | 1.6 | 4.8 | 0.00 | 0.10 | 0.10 | 90 | 1008.0 |
| 20260901162826 | 16 | 0 | 1.6 | 3.2 | 0.03 | 0.10 | 0.10 | 90 | 1007.9 |
| 20260901162325 | 16 | 156 | 0.0 | 3.2 | 0.03 | 0.10 | 0.10 | 90 | 1008.0 |
| 20260901161825 | 16 | 187 | 0.0 | 1.6 | 0.03 | 0.10 | 0.10 | 90 | 1008.0 |
| 20260901161326 | 16 | 196 | 0.0 | 0.0 | 0.03 | 0.10 | 0.10 | 90 | 1008.0 |
| 20260901160825 | 16 | 211 | 0.0 | 12.9 | 0.05 | 0.10 | 0.10 | 90 | 1008.0 |
| 20260901160325 | 16 | 196 | 0.0 | 12.9 | 0.05 | 0.10 | 0.10 | 90 | 1008.0 |
| 20260901155826 | 16 | 201 | 6.4 | 12.9 | 0.08 | 0.10 | 0.10 | 89 | 1007.9 |
| 20260901155325 | 16 | 194 | 4.8 | 4.8 | 0.08 | 0.10 | 0.10 | 89 | 1007.9 |
| 20260901154825 | 16 | 0 | 0.0 | 0.0 | 0.08 | 0.10 | 0.10 | 89 | 1008.0 |
| 20260901154326 | 15 | 0 | 0.0 | 0.0 | 0.08 | 0.10 | 0.10 | 89 | 1008.0 |
| 20260901153825 | 15 | 210 | 0.0 | 9.7 | 0.08 | 0.10 | 0.10 | 89 | 1008.0 |
| 20260901153325 | 15 | 246 | 0.0 | 9.7 | 0.08 | 0.10 | 0.10 | 89 | 1008.0 |
| 20260901152827 | 15 | 193 | 1.6 | 9.7 | 0.05 | 0.10 | 0.10 | 89 | 1007.9 |
| 20260901152325 | 15 | 229 | 6.4 | 8.0 | 0.05 | 0.08 | 0.08 | 89 | 1008.0 |
| 20260901151825 | 15 | 217 | 1.6 | 8.0 | 0.05 | 0.08 | 0.08 | 89 | 1008.0 |
| 20260901151326 | 15 | 222 | 3.2 | 8.0 | 0.05 | 0.08 | 0.08 | 89 | 1008.0 |
| 20260901150825 | 15 | 233 | 1.6 | 6.4 | 0.03 | 0.08 | 0.08 | 89 | 1008.0 |
| 20260901150325 | 15 | 249 | 3.2 | 3.2 | 0.03 | 0.05 | 0.05 | 89 | 1007.9 |
| 20260901145825 | 15 | 218 | 0.0 | 4.8 | 0.00 | 0.05 | 0.05 | 89 | 1007.9 |
| 20260901144825 | 15 | 81 | 0.0 | 4.8 | 0.00 | 0.03 | 0.03 | 89 | 1007.9 |
| 20260901144326 | 15 | 92 | 3.2 | 4.8 | 0.00 | 0.03 | 0.03 | 89 | 1007.8 |
| 20260901143825 | 15 | 93 | 0.0 | 4.8 | 0.00 | 0.03 | 0.03 | 89 | 1007.8 |
| 20260901143325 | 15 | 79 | 1.6 | 6.4 | 0.00 | 0.03 | 0.03 | 89 | 1007.8 |
| 20260901142826 | 15 | 89 | 1.6 | 6.4 | 0.00 | 0.03 | 0.03 | 89 | 1007.8 |
| 20260901142325 | 15 | 93 | 0.0 | 6.4 | 0.00 | 0.03 | 0.03 | 89 | 1007.7 |
| 20260901141825 | 15 | 92 | 4.8 | 4.8 | 0.03 | 0.03 | 0.03 | 89 | 1007.6 |
| 20260901141326 | 15 | 82 | 0.0 | 4.8 | 0.03 | 0.03 | 0.03 | 89 | 1007.6 |
| 20260901140325 | 15 | 85 | 1.6 | 4.8 | 0.03 | 0.03 | 0.03 | 89 | 1007.5 |
| 20260901135826 | 15 | 98 | 0.0 | 4.8 | 0.03 | 0.03 | 0.03 | 89 | 1007.5 |
| 20260901135325 | 15 | 131 | 0.0 | 4.8 | 0.03 | 0.03 | 0.03 | 89 | 1007.4 |
| 20260901134825 | 15 | 127 | 0.0 | 1.6 | 0.03 | 0.03 | 0.03 | 89 | 1007.4 |
| 20260901134326 | 15 | 106 | 1.6 | 1.6 | 0.03 | 0.03 | 0.03 | 89 | 1007.4 |
| 20260901133825 | 15 | 341 | 0.0 | 8.0 | 0.03 | 0.03 | 0.03 | 89 | 1007.4 |
| 20260901133325 | 15 | 57 | 0.0 | 8.0 | 0.03 | 0.03 | 0.03 | 89 | 1007.4 |
| 20260901132826 | 15 | 131 | 0.0 | 8.0 | 0.03 | 0.03 | 0.03 | 89 | 1007.3 |
| 20260901132325 | 15 | 100 | 3.2 | 6.4 | 0.03 | 0.03 | 0.03 | 88 | 1007.3 |
| 20260901131825 | 15 | 169 | 1.6 | 4.8 | 0.00 | 0.03 | 0.03 | 88 | 1007.3 |
| 20260901131326 | 15 | 208 | 1.6 | 6.4 | 0.00 | 0.03 | 0.03 | 88 | 1007.2 |
| 20260901130825 | 15 | 187 | 0.0 | 6.4 | 0.00 | 0.00 | 0.00 | 88 | 1007.2 |
| 20260901130325 | 15 | 200 | 0.0 | 6.4 | 0.00 | 0.00 | 0.00 | 88 | 1007.3 |
| 20260901125825 | 15 | 135 | 1.6 | 4.8 | 0.00 | 0.00 | 0.00 | 88 | 1007.4 |
| 20260901125325 | 15 | 163 | 0.0 | 3.2 | 0.00 | 0.00 | 0.00 | 88 | 1007.4 |
| 20260901124825 | 15 | 194 | 1.6 | 1.6 | 0.00 | 0.00 | 0.00 | 88 | 1007.3 |
| 20260901124326 | 15 | 109 | 0.0 | 1.6 | 0.00 | 0.00 | 0.00 | 88 | 1007.3 |
| 20260901123825 | 15 | 0 | 0.0 | 6.4 | 0.00 | 0.00 | 0.00 | 88 | 1007.3 |
| 20260901123325 | 15 | 257 | 0.0 | 6.4 | 0.00 | 0.00 | 0.00 | 88 | 1007.3 |
| 20260901122825 | 15 | 232 | 1.6 | 6.4 | 0.00 | 0.00 | 0.00 | 88 | 1007.2 |
| 20260901122325 | 15 | 78 | 0.0 | 1.6 | 0.00 | 0.00 | 0.00 | 88 | 1007.2 |
| 20260901121825 | 15 | 57 | 0.0 | 6.4 | 0.00 | 0.00 | 0.00 | 88 | 1007.2 |
| 20260901121326 | 15 | 155 | 0.0 | 6.4 | 0.00 | 0.00 | 0.00 | 88 | 1007.4 |
| 20260901120825 | 15 | 156 | 1.6 | 6.4 | 0.00 | 0.00 | 0.00 | 88 | 1007.4 |
| 20260901120325 | 15 | 196 | 1.6 | 12.9 | 0.00 | 0.00 | 0.00 | 88 | 1007.3 |
| 20260901115826 | 15 | 177 | 6.4 | 12.9 | 0.00 | 0.00 | 0.00 | 88 | 1007.4 |
| 20260901115325 | 15 | 222 | 0.0 | 12.9 | 0.00 | 0.00 | 0.00 | 88 | 1007.4 |
| 20260901114825 | 15 | 207 | 4.8 | 12.9 | 0.00 | 0.00 | 0.00 | 88 | 1007.4 |
| 20260901114326 | 15 | 201 | 3.2 | 16.1 | 0.00 | 0.00 | 0.00 | 88 | 1007.4 |
| 20260901113825 | 15 | 194 | 3.2 | 16.1 | 0.00 | 0.00 | 0.00 | 88 | 1007.4 |
| 20260901113326 | 15 | 194 | 4.8 | 16.1 | 0.00 | 0.00 | 0.00 | 88 | 1007.5 |
| 20260901112826 | 15 | 175 | 9.7 | 11.3 | 0.00 | 0.00 | 0.00 | 87 | 1007.5 |
| 20260901111825 | 15 | 211 | 8.0 | 8.0 | 0.00 | 0.00 | 0.00 | 88 | 1007.5 |
| 20260901111326 | 15 | 197 | 0.0 | 6.4 | 0.00 | 0.00 | 0.00 | 87 | 1007.5 |
| 20260901110825 | 15 | 247 | 0.0 | 1.6 | 0.00 | 0.00 | 0.00 | 87 | 1007.5 |
| 20260901110325 | 15 | 0 | 0.0 | 0.0 | 0.00 | 0.00 | 0.00 | 87 | 1007.5 |
| 20260901105825 | 15 | 0 | 0.0 | 0.0 | 0.00 | 0.00 | 0.00 | 87 | 1007.5 |
| 20260901105325 | 15 | 0 | 0.0 | 0.0 | 0.00 | 0.00 | 0.00 | 87 | 1007.5 |
| 20260901104826 | 15 | 0 | 0.0 | 0.0 | 0.00 | 0.00 | 0.00 | 87 | 1007.5 |
| 20260901104326 | 15 | 0 | 0.0 | 0.0 | 0.00 | 0.00 | 0.00 | 87 | 1007.5 |
| 20260901103825 | 15 | 0 | 0.0 | 0.0 | 0.00 | 0.00 | 0.00 | 87 | 1007.5 |
| 20260901103325 | 15 | 0 | 0.0 | 3.2 | 0.00 | 0.00 | 0.00 | 87 | 1007.5 |
| 20260901102826 | 15 | 0 | 0.0 | 3.2 | 0.00 | 0.00 | 0.00 | 87 | 1007.4 |
| 20260901102325 | 15 | 210 | 0.0 | 3.2 | 0.00 | 0.00 | 0.00 | 87 | 1007.4 |
| 20260901101326 | 15 | 0 | 0.0 | 0.0 | 0.00 | 0.00 | 0.00 | 87 | 1007.4 |
| 20260901100825 | 15 | 0 | 0.0 | 4.8 | 0.00 | 0.00 | 0.00 | 87 | 1007.4 |
| 20260901100325 | 15 | 197 | 0.0 | 4.8 | 0.00 | 0.00 | 0.00 | 87 | 1007.4 |
| 20260901095826 | 15 | 201 | 0.0 | 4.8 | 0.00 | 0.00 | 0.00 | 87 | 1007.4 |
| 20260901095325 | 15 | 126 | 0.0 | 4.8 | 0.00 | 0.00 | 0.00 | 87 | 1007.4 |
| 20260901094825 | 15 | 201 | 0.0 | 11.3 | 0.00 | 0.00 | 0.00 | 87 | 1007.5 |
| 20260901094326 | 15 | 200 | 0.0 | 11.3 | 0.00 | 0.00 | 0.00 | 87 | 1007.4 |
| 20260901093825 | 15 | 179 | 4.8 | 11.3 | 0.00 | 0.00 | 0.00 | 87 | 1007.5 |
| 20260901093325 | 15 | 210 | 0.0 | 12.9 | 0.00 | 0.00 | 0.00 | 87 | 1007.4 |
| 20260901092826 | 15 | 210 | 3.2 | 12.9 | 0.00 | 0.00 | 0.00 | 87 | 1007.4 |
| 20260901092325 | 15 | 210 | 1.6 | 12.9 | 0.00 | 0.00 | 0.00 | 87 | 1007.4 |
| 20260901091825 | 15 | 217 | 3.2 | 14.5 | 0.00 | 0.00 | 0.00 | 87 | 1007.5 |
| 20260901091326 | 15 | 205 | 6.4 | 14.5 | 0.00 | 0.00 | 0.00 | 87 | 1007.5 |
| 20260901090825 | 15 | 198 | 6.4 | 14.5 | 0.00 | 0.00 | 0.00 | 87 | 1007.5 |
| 20260901090325 | 15 | 201 | 9.7 | 9.7 | 0.00 | 0.00 | 0.00 | 87 | 1007.6 |
| 20260901085826 | 15 | 218 | 1.6 | 9.7 | 0.00 | 0.00 | 0.00 | 87 | 1007.6 |
| 20260901085325 | 15 | 208 | 6.4 | 6.4 | 0.00 | 0.00 | 0.00 | 87 | 1007.5 |
| 20260901084825 | 15 | 191 | 1.6 | 6.4 | 0.00 | 0.00 | 0.00 | 87 | 1007.5 |
| 20260901084326 | 15 | 201 | 1.6 | 6.4 | 0.00 | 0.00 | 0.00 | 87 | 1007.5 |
| 20260901083825 | 15 | 210 | 3.2 | 6.4 | 0.00 | 0.00 | 0.00 | 87 | 1007.5 |
| 20260901083325 | 15 | 175 | 1.6 | 11.3 | 0.00 | 0.00 | 0.00 | 87 | 1007.6 |
| 20260901082826 | 15 | 161 | 1.6 | 11.3 | 0.00 | 0.00 | 0.00 | 87 | 1007.6 |
| 20260901082325 | 15 | 201 | 1.6 | 11.3 | 0.00 | 0.00 | 0.00 | 86 | 1007.6 |
| 20260901081825 | 15 | 187 | 8.0 | 9.7 | 0.00 | 0.00 | 0.00 | 86 | 1007.7 |
| 20260901081326 | 15 | 196 | 3.2 | 14.5 | 0.00 | 0.00 | 0.00 | 86 | 1007.6 |
| 20260901080825 | 15 | 187 | 3.2 | 14.5 | 0.00 | 0.00 | 0.00 | 86 | 1007.6 |
| 20260901080325 | 15 | 187 | 6.4 | 14.5 | 0.00 | 0.00 | 0.00 | 86 | 1007.6 |
| 20260901075826 | 15 | 215 | 8.0 | 12.9 | 0.00 | 0.00 | 0.00 | 86 | 1007.6 |
| 20260901075325 | 15 | 189 | 3.2 | 12.9 | 0.00 | 0.00 | 0.00 | 86 | 1007.6 |
| 20260901074825 | 15 | 194 | 4.8 | 12.9 | 0.00 | 0.00 | 0.00 | 86 | 1007.7 |
| 20260901074326 | 15 | 189 | 6.4 | 16.1 | 0.00 | 0.00 | 0.00 | 86 | 1007.6 |
| 20260901073825 | 16 | 211 | 4.8 | 16.1 | 0.00 | 0.00 | 0.00 | 86 | 1007.5 |
| 20260901073325 | 16 | 196 | 4.8 | 16.1 | 0.00 | 0.00 | 0.00 | 86 | 1007.5 |
| 20260901072826 | 16 | 196 | 6.4 | 12.9 | 0.00 | 0.00 | 0.00 | 86 | 1007.5 |
| 20260901072325 | 16 | 205 | 9.7 | 17.7 | 0.00 | 0.00 | 0.00 | 86 | 1007.5 |
| 20260901071825 | 16 | 211 | 8.0 | 17.7 | 0.00 | 0.00 | 0.00 | 86 | 1007.5 |
| 20260901071326 | 15 | 189 | 8.0 | 17.7 | 0.00 | 0.00 | 0.00 | 86 | 1007.5 |
| 20260901070825 | 15 | 200 | 9.7 | 17.7 | 0.00 | 0.00 | 0.00 | 86 | 1007.5 |
| 20260901070325 | 15 | 187 | 6.4 | 17.7 | 0.00 | 0.00 | 0.00 | 86 | 1007.5 |
| 20260901065826 | 15 | 163 | 9.7 | 17.7 | 0.00 | 0.00 | 0.00 | 86 | 1007.5 |
| 20260901065325 | 15 | 180 | 6.4 | 16.1 | 0.00 | 0.00 | 0.00 | 86 | 1007.4 |
| 20260901064825 | 15 | 193 | 4.8 | 16.1 | 0.00 | 0.00 | 0.00 | 86 | 1007.4 |
| 20260901064326 | 15 | 186 | 8.0 | 16.1 | 0.00 | 0.00 | 0.00 | 86 | 1007.4 |
| 20260901063825 | 15 | 212 | 11.3 | 16.1 | 0.00 | 0.00 | 0.00 | 86 | 1007.4 |
| 20260901063325 | 16 | 201 | 6.4 | 12.9 | 0.00 | 0.00 | 0.00 | 86 | 1007.4 |
| 20260901062825 | 16 | 193 | 6.4 | 12.9 | 0.00 | 0.00 | 0.00 | 86 | 1007.4 |
| 20260901062325 | 16 | 177 | 6.4 | 12.9 | 0.00 | 0.00 | 0.00 | 85 | 1007.5 |
| 20260901061825 | 16 | 204 | 6.4 | 14.5 | 0.00 | 0.00 | 0.00 | 85 | 1007.5 |
| 20260901061326 | 15 | 204 | 3.2 | 14.5 | 0.00 | 0.00 | 0.00 | 85 | 1007.5 |
| 20260901060825 | 16 | 201 | 3.2 | 14.5 | 0.00 | 0.00 | 0.00 | 85 | 1007.6 |
| 20260901060325 | 16 | 205 | 3.2 | 14.5 | 0.00 | 0.00 | 0.00 | 85 | 1007.5 |
| 20260901055325 | 16 | 201 | 6.4 | 14.5 | 0.00 | 0.00 | 0.00 | 85 | 1007.5 |
| 20260901054825 | 16 | 189 | 8.0 | 12.9 | 0.00 | 0.00 | 0.00 | 85 | 1007.4 |
| 20260901054326 | 16 | 225 | 4.8 | 12.9 | 0.00 | 0.00 | 0.00 | 85 | 1007.4 |
| 20260901053826 | 16 | 221 | 4.8 | 11.3 | 0.00 | 0.00 | 0.00 | 84 | 1007.4 |
| 20260901053325 | 16 | 198 | 0.0 | 6.4 | 0.00 | 0.00 | 0.00 | 84 | 1007.5 |
| 20260901052826 | 16 | 225 | 0.0 | 6.4 | 0.00 | 0.00 | 0.00 | 84 | 1007.4 |
| 20260901052325 | 16 | 242 | 0.0 | 3.2 | 0.00 | 0.00 | 0.00 | 84 | 1007.5 |
| 20260901051825 | 16 | 295 | 0.0 | 3.2 | 0.00 | 0.00 | 0.00 | 84 | 1007.4 |
| 20260901051326 | 16 | 0 | 0.0 | 0.0 | 0.00 | 0.00 | 0.00 | 84 | 1007.4 |
| 20260901050825 | 16 | 0 | 0.0 | 0.0 | 0.00 | 0.00 | 0.00 | 84 | 1007.4 |
| 20260901050325 | 16 | 0 | 0.0 | 0.0 | 0.00 | 0.00 | 0.00 | 84 | 1007.4 |
| 20260901045826 | 16 | 0 | 0.0 | 0.0 | 0.00 | 0.00 | 0.00 | 84 | 1007.3 |
| 20260901045325 | 16 | 0 | 0.0 | 0.0 | 0.00 | 0.00 | 0.00 | 84 | 1007.3 |
| 20260901044825 | 16 | 0 | 0.0 | 0.0 | 0.00 | 0.00 | 0.00 | 84 | 1007.3 |
| 20260901044326 | 16 | 0 | 0.0 | 0.0 | 0.00 | 0.00 | 0.00 | 84 | 1007.3 |
| 20260901043825 | 16 | 0 | 0.0 | 0.0 | 0.00 | 0.00 | 0.00 | 84 | 1007.4 |
| 20260901043325 | 16 | 0 | 0.0 | 0.0 | 0.00 | 0.00 | 0.00 | 84 | 1007.4 |
| 20260901042825 | 16 | 0 | 0.0 | 3.2 | 0.00 | 0.00 | 0.00 | 84 | 1007.4 |
| 20260901042325 | 16 | 247 | 0.0 | 3.2 | 0.00 | 0.00 | 0.00 | 84 | 1007.4 |
| 20260901041825 | 16 | 235 | 0.0 | 3.2 | 0.00 | 0.00 | 0.00 | 83 | 1007.4 |
| 20260901041326 | 16 | 0 | 0.0 | 6.4 | 0.00 | 0.00 | 0.00 | 83 | 1007.4 |
| 20260901040825 | 16 | 257 | 0.0 | 6.4 | 0.00 | 0.00 | 0.00 | 83 | 1007.4 |
| 20260901040325 | 16 | 271 | 0.0 | 6.4 | 0.00 | 0.00 | 0.00 | 83 | 1007.3 |
| 20260901035826 | 16 | 0 | 0.0 | 0.0 | 0.00 | 0.00 | 0.00 | 83 | 1007.3 |
| 20260901035325 | 16 | 0 | 0.0 | 0.0 | 0.00 | 0.00 | 0.00 | 83 | 1007.2 |
| 20260901034825 | 16 | 0 | 0.0 | 0.0 | 0.00 | 0.00 | 0.00 | 83 | 1007.1 |
| 20260901034326 | 16 | 0 | 0.0 | 4.8 | 0.00 | 0.00 | 0.00 | 83 | 1007.1 |
| 20260901033825 | 16 | 0 | 0.0 | 4.8 | 0.00 | 0.00 | 0.00 | 83 | 1007.1 |
| 20260901033325 | 16 | 256 | 0.0 | 4.8 | 0.00 | 0.00 | 0.00 | 83 | 1007.0 |
| 20260901032826 | 16 | 329 | 4.8 | 9.7 | 0.00 | 0.00 | 0.00 | 83 | 1006.9 |
| 20260901032325 | 16 | 313 | 0.0 | 9.7 | 0.00 | 0.00 | 0.00 | 83 | 1006.8 |
| 20260901031825 | 16 | 7 | 1.6 | 9.7 | 0.00 | 0.00 | 0.00 | 83 | 1006.8 |
| 20260901031326 | 16 | 347 | 4.8 | 4.8 | 0.00 | 0.00 | 0.00 | 83 | 1006.7 |
| 20260901030826 | 17 | 0 | 0.0 | 0.0 | 0.00 | 0.00 | 0.00 | 83 | 1006.7 |
| 20260901030325 | 16 | 336 | 0.0 | 6.4 | 0.00 | 0.00 | 0.00 | 83 | 1006.7 |
| 20260901025826 | 16 | 317 | 0.0 | 6.4 | 0.00 | 0.00 | 0.00 | 83 | 1006.8 |
| 20260901025325 | 16 | 315 | 1.6 | 6.4 | 0.00 | 0.00 | 0.00 | 83 | 1006.8 |